Location: Ar Ranvel
(48.3000°N, 4.8833°W)
Time: 10:04:37
(UTC+00:00)

BREEZE-M DEB (TANK) - Pass Details

Date: 16 June 2021
Orbit: 288 x 18719 km, 52.6° (Epoch: 01 August)

Event Time Altitude Azimuth Distance (km) Brightness Sun altitude
Rises 21:22:55 0° 295° (WNW) 4,630 8.9 -8.1°
Reaches altitude 10° 21:27:19 10° 294° (WNW) 2,422 7.2 -8.5°
Maximum altitude 21:31:38 74° 211° (SSW) 419 2.2 -9.0°
Enters shadow 21:33:26 14° 125° (SE) 1,023 3.6 -9.2°
